Zurück zum Katalog

ARCADE

LostWissenschaftVLEO
NORAD 57485·PAYLOAD·🇸🇬 Singapore

Gestartet Jul 30, 2023 von Satish Dhawan Space Centre

Loading…

Nächste Überflüge (nächste 24 Stunden)

TLE

VeraltetSource: Space-Track

Epoche: Dec 23, 2023, 20:42 UTC

1 57485U 23109E   23357.86294790  .00014481  00000-0  70660-3 0  9999
2 57485   4.9977 247.6344 0009185  53.8335 306.2623 15.14746534 22250

Verfolge ARCADE in Echtzeit mit AllMySat

Download on the App Store